Weather in Rokitnoe

Ukraine / Rovno District     51°16′04″N   27°13′06″E
temp.,
°C
wind,
m/s
gust,
m/s
humid.,
%
clouds,
%
prec.,
mm/h
press.,
hPa
HPBL,
m
8 august, mon
mon800:00+14ne11920 0.0 102211
03:00+13nne129310 0.0 102212
06:00+12nne2293100 0.0 102231
09:00+17ne237488 0.0 1023347
12:00+21n335268 0.0 10231147
15:00+22n234372 0.0 10221403
18:00+23nne334295 0.0 10211469
21:00+18nne356492 0.0 102283
9 august, tue
tue900:00+15nne3569100 0.0 102387
03:00+14nne2473100 0.0 102370
06:00+14nne2377100 0.0 102371
09:00+18nne2365100 0.0 1024300
12:00+22nne2250100 0.0 10241329
15:00+22sse2345100 0.0 10231849
18:00+22nne135196 0.0 10231304
21:00+18nne0169100 0.1 102311
10 august, wed
wed1000:00+17nnw2267100 0.0 102343
03:00+17nne2668100 0.0 1023169
06:00+16nne2671100 0.0 1023155
09:00+18nne3668100 0.0 1023302
12:00+20nne4558100 0.0 1023661
15:00+23nne4544100 0.0 10222233
18:00+22nne454889 0.0 10221287
21:00+18nne3861100 0.0 1022220
11 august, thu
thu1100:00+15ne377656 0.0 1023151
03:00+16n3772100 0.0 1022187
06:00+16nne3875100 0.1 1022296
09:00+18ne486918 0.3 1023471
12:00+24ne67485 0.0 10221255
15:00+27ene67405 0.0 10211633
18:00+27ene56435 0.0 10211685
21:00+20ne411650 0.0 1022232
12 august, fri
fri1200:00+18ne310690 0.0 1023233
03:00+16ne39750 0.0 1023189
06:00+14ene39785 0.0 1024175
09:00+20e48550 0.0 1024392
12:00+26ene563766 0.0 10231007
15:00+29ene563111 0.0 10221367
18:00+29ene463585 0.0 10211389
21:00+21ne39595 0.0 1022140